Weather History for Flag Island, MN

Change the Weather History Date:

Saturday, September 29, 2012

  Actual Average Record
Temperature  
Mean Temperature 62 °F -  
Max Temperature 73 °F 51 °F 73 °F (2012)
Min Temperature 51 °F 39 °F 33 °F (1996)
Degree Days  
Heating Degree Days 3    
Growing Degree Days 12 (Base 50)    
Moisture  
Dew Point 47 °F    
Average Humidity 67    
Maximum Humidity 94    
Minimum Humidity 33    
Precipitation  
Precipitation 0.00 in - - ()
Sea Level Pressure  
Sea Level Pressure 30.05 in    
Wind  
Wind Speed 2 mph (SE)    
Max Wind Speed 10 mph    
Max Gust Speed -    
Visibility 10 miles    
Events      
Averages and records for this station are not official NWS values.
T = Trace of Precipitation, MM = Missing Value Source: NWS Daily Summary

Daily Weather History Graph

Daily Weather History Graph

Search for Another Location

Airport:

Trip Planner

Search our weather history database for the weather conditions in past years. The results will help you decide how hot, cold, wet, or windy it might be!

Date:

Astronomy

Sep. 29, 2012 Rise Set
Actual Time 7:17 AM CDT 7:01 PM CDT
Civil Twilight 6:45 AM CDT 7:33 PM CDT
Nautical Twilight 6:08 AM CDT 8:10 PM CDT
Astronomical Twilight 5:30 AM CDT 8:47 PM CDT
Moon 6:29 PM CDT (9/29) 6:51 AM CDT (9/29)
Length of Visible Light 12h 47m
Length of Day
11h 44m
Full, 100% of the Moon is Illuminated
Sep 29
Full
Sep 29
Full
Oct 8
Last Quarter
Oct 15
New
Oct 21
First Quarter

Hourly Weather History & Observations

Time (CDT) Temp. Dew Point Humidity Pressure Visibility Wind Dir Wind Speed Gust Speed Precip Events Conditions
12:13 AM 53.6 °F 48.2 °F 82% 30.08 in 10.0 mi Calm Calm - N/A   Clear
12:33 AM 53.6 °F 48.2 °F 82% 30.08 in 10.0 mi Calm Calm - N/A   Clear
12:54 AM 53.6 °F 48.2 °F 82% 30.09 in 10.0 mi Calm Calm - N/A   Clear
1:13 AM 53.6 °F 48.2 °F 82% 30.08 in 10.0 mi Calm Calm - N/A   Clear
1:33 AM 53.6 °F 50.0 °F 88% 30.08 in 10.0 mi Calm Calm - N/A   Clear
1:54 AM 51.8 °F 50.0 °F 94% 30.09 in 10.0 mi Calm Calm - N/A   Clear
2:13 AM 51.8 °F 50.0 °F 94% 30.09 in 10.0 mi Calm Calm - N/A   Clear
2:33 AM 53.6 °F 50.0 °F 88% 30.09 in 10.0 mi Calm Calm - N/A   Clear
2:54 AM 51.8 °F 50.0 °F 94% 30.09 in 10.0 mi Calm Calm - N/A   Clear
3:13 AM 51.8 °F 50.0 °F 94% 30.09 in 10.0 mi Calm Calm - N/A   Clear
3:33 AM 51.8 °F 50.0 °F 94% 30.09 in 10.0 mi Calm Calm - N/A   Clear
3:54 AM 51.8 °F 48.2 °F 88% 30.09 in 10.0 mi Calm Calm - N/A   Clear
4:13 AM 51.8 °F 50.0 °F 94% 30.09 in 10.0 mi Calm Calm - N/A   Clear
4:33 AM 51.8 °F 50.0 °F 94% 30.09 in 10.0 mi ESE 3.5 mph - N/A   Clear
4:54 AM 53.6 °F 51.8 °F 94% 30.09 in 10.0 mi Calm Calm - N/A   Clear
5:13 AM 51.8 °F 50.0 °F 94% 30.09 in 10.0 mi Calm Calm - N/A   Clear
5:33 AM 51.8 °F 50.0 °F 94% 30.09 in 10.0 mi Calm Calm - N/A   Clear
5:54 AM 51.8 °F 50.0 °F 94% 30.09 in 10.0 mi Calm Calm - N/A   Clear
6:13 AM 51.8 °F 50.0 °F 94% 30.09 in 10.0 mi Calm Calm - N/A   Clear
6:33 AM 51.8 °F 50.0 °F 94% 30.09 in 10.0 mi Calm Calm - N/A   Clear
6:54 AM 51.8 °F 50.0 °F 94% 30.10 in 10.0 mi Calm Calm - N/A   Clear
7:13 AM 51.8 °F 48.2 °F 88% 30.10 in 10.0 mi Calm Calm - N/A   Clear
7:33 AM 51.8 °F 48.2 °F 88% 30.10 in 10.0 mi Calm Calm - N/A   Clear
7:54 AM 53.6 °F 48.2 °F 82% 30.10 in 10.0 mi SE 4.6 mph - N/A   Clear
8:14 AM 53.6 °F 50.0 °F 88% 30.10 in 10.0 mi SSE 4.6 mph - N/A   Clear
8:33 AM 55.4 °F 48.2 °F 77% 30.10 in 10.0 mi SSE 5.8 mph - N/A   Clear
8:54 AM 55.4 °F 48.2 °F 77% 30.10 in 10.0 mi SSE 5.8 mph - N/A   Clear
9:13 AM 55.4 °F 48.2 °F 77% 30.10 in 10.0 mi SSE 5.8 mph - N/A   Clear
9:53 AM 55.4 °F 48.2 °F 77% 30.10 in 10.0 mi SSE 5.8 mph - N/A   Clear
10:13 AM 55.4 °F 46.4 °F 72% 30.10 in 10.0 mi SSE 6.9 mph - N/A   Clear
10:34 AM 57.2 °F 46.4 °F 67% 30.10 in 10.0 mi SSE 5.8 mph - N/A   Clear
10:53 AM 57.2 °F 48.2 °F 72% 30.10 in 10.0 mi SSE 6.9 mph - N/A   Clear
11:13 AM 57.2 °F 48.2 °F 72% 30.10 in 10.0 mi SSE 6.9 mph - N/A   Clear
11:34 AM 57.2 °F 48.2 °F 72% 30.10 in 10.0 mi SSE 6.9 mph - N/A   Clear
11:53 AM 59.0 °F 46.4 °F 63% 30.10 in 10.0 mi SSE 6.9 mph - N/A   Clear
12:34 PM 60.8 °F 50.0 °F 68% 30.08 in 10.0 mi South 4.6 mph - N/A   Clear
12:53 PM 60.8 °F 50.0 °F 68% 30.08 in 10.0 mi South 4.6 mph - N/A   Clear
1:13 PM 60.8 °F 46.4 °F 59% 30.08 in 10.0 mi SSE 4.6 mph - N/A   Clear
1:34 PM 62.6 °F 50.0 °F 63% 30.07 in 10.0 mi SSE 4.6 mph - N/A   Clear
1:53 PM 64.4 °F 51.8 °F 64% 30.06 in 10.0 mi Calm Calm - N/A   Clear
2:13 PM 64.4 °F 48.2 °F 56% 30.05 in 10.0 mi SSE 4.6 mph - N/A   Clear
2:34 PM 66.2 °F 46.4 °F 49% 30.04 in 10.0 mi SSE 5.8 mph - N/A   Clear
2:53 PM 68.0 °F 44.6 °F 43% 30.03 in 10.0 mi SSE 8.1 mph - N/A   Clear
3:14 PM 69.8 °F 42.8 °F 38% 30.03 in 10.0 mi SE 5.8 mph - N/A   Clear
3:33 PM 71.6 °F 44.6 °F 38% 30.02 in 10.0 mi SE 4.6 mph - N/A   Clear
3:53 PM 71.6 °F 42.8 °F 35% 30.02 in 10.0 mi SSE 5.8 mph - N/A   Clear
4:14 PM 71.6 °F 44.6 °F 38% 30.01 in 10.0 mi SE 4.6 mph - N/A   Clear
4:34 PM 71.6 °F 44.6 °F 38% 30.01 in 10.0 mi SE 4.6 mph - N/A   Clear
5:14 PM 73.4 °F 42.8 °F 33% 30.00 in 10.0 mi ESE 4.6 mph - N/A   Clear
5:34 PM 73.4 °F 42.8 °F 33% 29.99 in 10.0 mi ESE 4.6 mph - N/A   Clear
5:53 PM 73.4 °F 42.8 °F 33% 29.99 in 10.0 mi ESE 4.6 mph - N/A   Clear
6:14 PM 71.6 °F 42.8 °F 35% 29.98 in 10.0 mi ESE 4.6 mph - N/A   Clear
6:34 PM 71.6 °F 42.8 °F 35% 29.98 in 10.0 mi ESE 4.6 mph - N/A   Clear
6:53 PM 69.8 °F 42.8 °F 38% 29.98 in 10.0 mi ESE 4.6 mph - N/A   Clear
7:14 PM 69.8 °F 42.8 °F 38% 29.98 in 10.0 mi ESE 4.6 mph - N/A   Clear
7:33 PM 69.8 °F 42.8 °F 38% 29.97 in 10.0 mi ESE 4.6 mph - N/A   Clear
8:13 PM 68.0 °F 42.8 °F 40% 29.97 in 10.0 mi ESE 4.6 mph - N/A   Clear
8:33 PM 66.2 °F 42.8 °F 43% 29.97 in 10.0 mi ESE 4.6 mph - N/A   Clear
8:54 PM 66.2 °F 44.6 °F 46% 29.97 in 10.0 mi SE 4.6 mph - N/A   Clear
9:13 PM 66.2 °F 44.6 °F 46% 29.97 in 10.0 mi SE 5.8 mph - N/A   Clear
9:33 PM 66.2 °F 44.6 °F 46% 29.96 in 10.0 mi SE 5.8 mph - N/A   Clear
9:54 PM 66.2 °F 44.6 °F 46% 29.97 in 10.0 mi SE 5.8 mph - N/A   Clear
10:13 PM 64.4 °F 44.6 °F 49% 29.97 in 10.0 mi SE 10.4 mph - N/A   Clear
10:33 PM 62.6 °F 50.0 °F 63% 29.97 in 10.0 mi South 3.5 mph - N/A   Clear
10:54 PM 62.6 °F 48.2 °F 59% 29.97 in 10.0 mi SSE 10.4 mph - N/A   Clear
11:13 PM 62.6 °F 48.2 °F 59% 29.97 in 10.0 mi SSE 10.4 mph - N/A   Clear
11:33 PM 62.6 °F 48.2 °F 59% 29.96 in 10.0 mi SSE 10.4 mph - N/A   Clear
11:54 PM 60.8 °F 48.2 °F 63% 29.96 in 10.0 mi SSE 6.9 mph - N/A   Clear